Viroqua, WI

1:07 PM CDT on June 28, 2017 (GMT -0500)
Viroqua

Weather History for KY51 - October, 2011

Change the Weather History Date:

Wednesday, October 12, 2011

  Actual Average (KCMY) Record (KCMY)
Temperature  
Mean Temperature 62 °F -  
Max Temperature 70 °F 61 °F 83 °F (1960)
Min Temperature 54 °F 36 °F 15 °F (2012)
Degree Days  
Heating Degree Days 3    
Growing Degree Days 12 (Base 50)    
Moisture  
Dew Point 58 °F    
Average Humidity 96    
Maximum Humidity 100    
Minimum Humidity 64    
Precipitation  
Precipitation 0.28 in - - ()
Sea Level Pressure  
Sea Level Pressure 29.77 in    
Wind  
Wind Speed 7 mph (SE)    
Max Wind Speed 14 mph    
Max Gust Speed 18 mph    
Visibility 6 miles    
Events      
Averages and records for this station are not official NWS values.
T = Trace of Precipitation, MM = Missing Value Source: NWS Daily Summary

Daily Weather History Graph

Daily Weather History Graph

Search for Another Location

Airport or City:

Trip Planner

Search our weather history database for the weather conditions in past years. The results will help you decide how hot, cold, wet, or windy it might be!

Date:

Astronomy

Oct. 12, 2011 Rise Set
Actual Time 7:13 AM CDT 6:25 PM CDT
Civil Twilight 6:45 AM CDT 6:54 PM CDT
Nautical Twilight 6:11 AM CDT 7:27 PM CDT
Astronomical Twilight 5:38 AM CDT 8:00 PM CDT
Moon 6:24 PM CDT (10/12) 7:51 AM CDT (10/12)
Length of Visible Light 12h 09m
Length of Day
11h 11m
Full, 100% of the Moon is Illuminated
Oct 12
Full
Oct 19
Last Quarter
Oct 26
New
Nov 2
First Quarter
Nov 10
Full

Hourly Weather History & Observations

Time (CDT) Temp. Dew Point Humidity Pressure Visibility Wind Dir Wind Speed Gust Speed Precip Events Conditions
12:15 AM 58.1 °F 58.1 °F 100% 29.88 in 7.0 mi SE 6.9 mph - N/A   Clear
12:55 AM 56.8 °F 56.8 °F 100% 29.88 in 5.0 mi SE 5.8 mph - N/A   Clear
1:15 AM 56.5 °F 56.5 °F 100% 29.88 in 5.0 mi SE 4.6 mph - N/A   Clear
1:35 AM 57.0 °F 57.0 °F 100% 29.87 in 7.0 mi SE 4.6 mph - N/A   Clear
1:55 AM 56.8 °F 56.8 °F 100% 29.87 in 7.0 mi SE 5.8 mph - N/A   Clear
2:15 AM 57.2 °F 57.2 °F 100% 29.87 in 5.0 mi SE 6.9 mph - N/A   Clear
2:35 AM 56.7 °F 56.7 °F 100% 29.87 in 5.0 mi SE 5.8 mph - N/A   Clear
2:55 AM 56.8 °F 56.8 °F 100% 29.86 in 5.0 mi SE 6.9 mph - N/A   Clear
3:15 AM 56.5 °F 56.5 °F 100% 29.86 in 4.0 mi ESE 6.9 mph - N/A   Clear
3:35 AM 56.3 °F 56.3 °F 100% 29.85 in 4.0 mi SE 5.8 mph - N/A   Clear
3:55 AM 56.3 °F 56.3 °F 100% 29.85 in 4.0 mi ESE 5.8 mph - N/A   Clear
4:15 AM 55.8 °F 55.8 °F 100% 29.85 in 3.0 mi ESE 5.8 mph - N/A   Clear
4:35 AM 55.2 °F 55.2 °F 100% 29.84 in 1.8 mi ESE 8.1 mph - N/A   Unknown
4:55 AM 55.2 °F 55.2 °F 100% 29.83 in 3.0 mi ESE 6.9 mph - N/A   Clear
5:15 AM 55.4 °F 55.4 °F 100% 29.83 in 4.0 mi ESE 8.1 mph - N/A   Clear
5:35 AM 55.4 °F 55.4 °F 100% 29.83 in 4.0 mi ESE 8.1 mph - N/A   Clear
5:55 AM 55.6 °F 55.6 °F 100% 29.83 in 4.0 mi ESE 6.9 mph - N/A   Clear
6:55 AM 54.7 °F 54.7 °F 100% 29.84 in 1.0 mi ESE 4.6 mph - N/A   Overcast
7:15 AM 54.1 °F 54.1 °F 100% 29.83 in 0.5 mi ESE 5.8 mph - N/A   Overcast
7:35 AM 54.3 °F 54.3 °F 100% 29.83 in 0.2 mi ESE 5.8 mph - N/A   Overcast
7:55 AM 54.1 °F 54.1 °F 100% 29.83 in 0.5 mi East 4.6 mph - N/A   Overcast
8:15 AM 55.2 °F 55.2 °F 100% 29.82 in 2.0 mi East 4.6 mph - N/A   Scattered Clouds
8:35 AM 56.3 °F 56.3 °F 100% 29.82 in 2.5 mi ESE 5.8 mph - N/A   Clear
8:55 AM 57.7 °F 57.7 °F 100% 29.81 in 4.0 mi ESE 8.1 mph - N/A   Clear
9:15 AM 59.2 °F 59.0 °F 99% 29.81 in 5.0 mi ESE 9.2 mph - N/A   Clear
9:35 AM 60.4 °F 59.5 °F 97% 29.81 in 7.0 mi ESE 9.2 mph - N/A   Clear
9:55 AM 61.5 °F 59.7 °F 94% 29.80 in 10.0 mi ESE 9.2 mph - N/A   Clear
10:15 AM 62.6 °F 59.7 °F 90% 29.80 in 10.0 mi SE 8.1 mph - N/A   Clear
10:35 AM 64.8 °F 59.5 °F 83% 29.79 in 10.0 mi SE 9.2 mph - N/A   Clear
10:55 AM 64.6 °F 59.5 °F 84% 29.79 in 10.0 mi ESE 8.1 mph - N/A   Clear
11:15 AM 65.7 °F 58.6 °F 78% 29.78 in 10.0 mi ESE 11.5 mph - N/A   Clear
11:35 AM 69.4 °F 58.1 °F 67% 29.78 in 10.0 mi SE 9.2 mph - N/A   Clear
11:55 AM 70.0 °F 57.4 °F 64% 29.77 in 10.0 mi SE 9.2 mph - N/A   Clear
12:15 PM 68.2 °F 57.0 °F 67% 29.77 in 10.0 mi SSE 6.9 mph - N/A   Clear
12:55 PM 67.6 °F 56.7 °F 68% 29.77 in 10.0 mi South 10.4 mph - N/A   Mostly Cloudy
1:15 PM 66.4 °F 56.8 °F 71% 29.77 in 10.0 mi South 13.8 mph 18.4 mph N/A   Overcast
1:35 PM 61.9 °F 59.0 °F 90% 29.78 in 1.0 mi South 9.2 mph - 0.12 in   Overcast
1:55 PM 59.5 °F 59.5 °F 100% 29.77 in 4.0 mi South 9.2 mph - 0.17 in   Overcast
2:15 PM 59.2 °F 59.2 °F 100% 29.75 in 5.0 mi SSW 5.8 mph - 0.03 in   Overcast
2:35 PM 59.5 °F 59.5 °F 100% 29.74 in 7.0 mi Calm Calm - 0.05 in   Overcast
2:55 PM 59.9 °F 59.9 °F 100% 29.73 in 7.0 mi SSE 4.6 mph - 0.06 in   Overcast
3:15 PM 60.1 °F 60.1 °F 100% 29.73 in 5.0 mi SE 6.9 mph - 0.01 in   Overcast
3:35 PM 59.9 °F 59.9 °F 100% 29.71 in 5.0 mi ESE 8.1 mph - 0.02 in   Overcast
3:55 PM 59.9 °F 59.9 °F 100% 29.70 in 7.0 mi ESE 6.9 mph - 0.02 in   Overcast
4:15 PM 59.9 °F 59.9 °F 100% 29.68 in 5.0 mi East 6.9 mph - N/A   Overcast
4:35 PM 59.4 °F 59.4 °F 100% 29.67 in 7.0 mi East 9.2 mph - N/A   Overcast
4:55 PM 59.2 °F 59.2 °F 100% 29.67 in 10.0 mi ESE 4.6 mph - N/A   Overcast
5:15 PM 59.2 °F 59.2 °F 100% 29.67 in 10.0 mi ESE 9.2 mph - N/A   Mostly Cloudy
5:35 PM 59.0 °F 59.0 °F 100% 29.67 in 10.0 mi ESE 8.1 mph - N/A   Mostly Cloudy
5:55 PM 58.6 °F 58.6 °F 100% 29.68 in 10.0 mi SE 10.4 mph - N/A   Overcast
6:15 PM 58.5 °F 58.5 °F 100% 29.68 in 10.0 mi ESE 6.9 mph - N/A   Overcast
6:35 PM 58.3 °F 58.3 °F 100% 29.68 in 10.0 mi ESE 5.8 mph - N/A   Overcast
6:55 PM 58.1 °F 58.1 °F 100% 29.68 in 10.0 mi ESE 5.8 mph - N/A   Overcast
7:15 PM 58.1 °F 58.1 °F 100% 29.68 in 10.0 mi ESE 4.6 mph - N/A   Overcast
7:35 PM 58.1 °F 58.1 °F 100% 29.68 in 7.0 mi ESE 5.8 mph - N/A   Overcast
7:55 PM 57.9 °F 57.9 °F 100% 29.67 in 7.0 mi ESE 4.6 mph - N/A   Overcast
8:15 PM 58.1 °F 58.1 °F 100% 29.66 in 7.0 mi ESE 6.9 mph - N/A   Overcast
8:35 PM 58.1 °F 58.1 °F 100% 29.66 in 5.0 mi ESE 4.6 mph - N/A   Overcast
8:55 PM 57.7 °F 57.7 °F 100% 29.66 in 4.0 mi ESE 3.5 mph - 0.02 in   Overcast
9:15 PM 57.7 °F 57.7 °F 100% 29.66 in 5.0 mi East 3.5 mph - 0.01 in   Overcast
9:35 PM 57.6 °F 57.6 °F 100% 29.66 in 5.0 mi East 5.8 mph - 0.01 in   Overcast
9:55 PM 57.7 °F 57.7 °F 100% 29.65 in 5.0 mi ESE 6.9 mph - 0.01 in   Overcast
10:15 PM 57.9 °F 57.9 °F 100% 29.64 in 7.0 mi ESE 6.9 mph - N/A   Overcast
10:35 PM 57.7 °F 57.7 °F 100% 29.64 in 7.0 mi ESE 8.1 mph - N/A   Overcast
10:55 PM 57.7 °F 57.7 °F 100% 29.64 in 7.0 mi ESE 6.9 mph - N/A   Overcast
11:15 PM 57.7 °F 57.7 °F 100% 29.63 in 7.0 mi ESE 4.6 mph - N/A   Overcast
11:35 PM 57.6 °F 57.6 °F 100% 29.63 in 7.0 mi ESE 4.6 mph - N/A   Mostly Cloudy
11:55 PM 57.6 °F 57.6 °F 100% 29.62 in 7.0 mi ESE 6.9 mph - N/A   Overcast